Location: Hylvaty SDH
(49.9612°N, 16.4057°E)
Time: 01:20:53
(UTC+01:00)

Transit 4A - Pass Details

Date: 10 August 2020
Orbit: 864 x 981 km, 66.8° (Epoch: 15 January)

Event Time Altitude Azimuth Distance (km) Brightness Sun altitude
Rises 18:11:43 0° 323° (NW) 3,629 11.5 19.3°
Reaches altitude 10° 18:14:16 10° 325° (NW) 2,695 10.9 18.9°
Maximum altitude 18:20:35 76° 51° (NE) 1,006 8.3 17.9°
Drops below altitude 10° 18:27:00 10° 138° (SE) 2,726 10.0 16.9°
Sets 18:29:34 0° 140° (SE) 3,672 10.6 16.4°
